Flag for Canada Weather past 2 weeks in Greater Sudbury, Ontario, Canada

Now
N/A

Sprinkles.


Feels Like: N/A
Forecast: 52 / 64 °F
Wind: 13 mph from Northeast

Location: Sudbury

Current Time: Jul 1, 2015 at 1:17:53 AM

Latest Report: Jul 1, 2015 at 12:00 AM


Visibility: 15 mi

Pressure: N/A

Humidity: N/A

Dew point: N/A

Location of Greater SudburyLocation

Historic Weather in Greater Sudbury — Graph

°F

Greater Sudbury temperature yesterday

Maximum temperature yesterday: 77 °F (at 1:00 PM)
Minimum temperature yesterday: 54 °F (at 5:00 AM)
Average temperature yesterday: 65 °F

Past Weeks' High & Low Weather Summary

 TemperatureHumidityPressure
High79 °F (Jun 29, 2:00 PM)100% (Jun 19, 5:00 AM)30.20 "Hg (Jun 19, 5:00 AM)
Low39 °F (Jun 19, 5:00 AM)27% (Jun 26, 1:00 PM)29.49 "Hg (Jun 23, 6:00 AM)
Average63 °F67%29.95 "Hg
* Reported Midnight between Jun 15 and Jun 16 — Midnight between Jun 30 and Jul 1, Greater Sudbury, Weather by CustomWeather, © 2015

Note: Actual official high and low records may vary slightly from our data, if they occured in-between our weather recording intervals... More about our weather records

Advertising

Greater Sudbury weather history for previous 24 hours

 ConditionsComfort  
Time TempWeatherWind HumidityBarometerVisibility
12:00 AM
Wed, Jul 1
N/ASprinkles.13 mphN/AN/A15 mi
11:00 PM
Tue, Jun 30
N/ASprinkles.12 mphN/AN/A10 mi
10:00 PMN/ASprinkles.12 mphN/AN/A15 mi
7:00 PM63 °FSprinkles. Partly sunny.17 mph88%29.80 "Hg15 mi
6:00 PM68 °FThunderstorms. Mostly cloudy.8 mph78%29.80 "Hg3 mi
5:00 PM77 °FMore clouds than sun.7 mph47%29.78 "Hg20 mi
4:00 PM77 °FBroken clouds.3 mph44%29.79 "Hg20 mi
3:00 PM77 °FBroken clouds.12 mph44%29.79 "Hg20 mi
2:00 PM73 °FBroken clouds.8 mph53%29.82 "Hg20 mi
1:00 PM77 °FPartly sunny.13 mph51%29.83 "Hg20 mi
12:00 PM75 °FScattered clouds.9 mph54%29.84 "Hg20 mi
11:00 AM73 °FScattered clouds.9 mph57%29.84 "Hg20 mi
10:00 AM68 °FPassing clouds.5 mph73%29.85 "Hg20 mi
9:00 AM64 °FPassing clouds.5 mph78%29.85 "Hg20 mi
8:00 AM63 °FPassing clouds.3 mph77%29.84 "Hg15 mi
7:00 AM57 °FScattered clouds.5 mph88%29.84 "Hg20 mi
6:00 AM54 °FPassing clouds.6 mph94%29.83 "Hg20 mi
5:00 AM54 °FPassing clouds.7 mph94%29.82 "Hg15 mi
4:00 AM55 °FPassing clouds.7 mph88%29.83 "Hg15 mi
3:00 AM55 °FClear.6 mph82%29.83 "Hg15 mi
2:00 AM55 °FClear.7 mph82%29.83 "Hg15 mi
1:00 AM57 °FClear.8 mph77%29.84 "Hg15 mi
Weather by CustomWeather, © 2015

See weather overviewHow to use our weather pages